Regional Weather Roundup
Issued by NWS Portland, ME

Home | Current Version | Previous Version | Text Only | Print | Product List | Glossary On
Versions: 1 2 3 4 5 6 7 8 9 10 11 12 13 14 15 16 17 18 19 20 21 22 23 24 25 26 27 28 29 30 31 32 33 34 35 36 37 38 39 40 41 42 43 44 45 46 47 48 49 50
000
ASUS41 KGYX 260410
RWRGYX
WEATHER ROUNDUP FOR MAINE AND NEW HAMPSHIRE
NATIONAL WEATHER SERVICE GRAY ME
1200 AM EDT SUN OCT 26 2014

MEZ002-005-006-010-012-015-018-020-021-024-026-027-029-260500-
MAINE

CITY           SKY/WX    TMP DP  RH WIND       PRES   REMARKS
PORTLAND       CLOUDY    54  47  77 W3        29.45F
SANFORD        CLOUDY    50  43  76 S6        29.46F
BAR HARBOR     CLOUDY    46  45  93 CALM      29.46F
WISCASSET      CLOUDY    48  47  96 CALM      29.46F
ROCKLAND       CLOUDY    54  48  82 SW6       29.43F
FRYEBURG       CLOUDY    52  44  74 SW6       29.44F
LEWISTONAUBURN CLOUDY    48  43  81 CALM      29.44F
AUGUSTA        LGT RAIN  48  45  89 CALM      29.45F
WATERVILLE     CLOUDY    48  43  81 W3        29.43S
BANGOR         CLOUDY    47  45  93 CALM      29.45F
GREENVILLE       N/A     42  39  89 S3        29.41F
MILLINOCKET    CLOUDY    43  40  89 CALM      29.47F
HOULTON        CLOUDY    43  41  93 SE6       29.46F
PRESQUE ISLE   CLOUDY    43  37  81 S9        29.46F
FRENCHVILLE    FOG       39  39 100 SE7       29.45F VSB 1/4
CARIBOU        CLOUDY    42  41  96 S3        29.45F
$$

NHZ002-005-008-009-011-012-014-260500-
NEW HAMPSHIRE

CITY           SKY/WX    TMP DP  RH WIND       PRES   REMARKS
PORTSMOUTH     CLOUDY    53  44  70 VRB3      29.45F
ROCHESTER      MOCLDY    52  44  74 CALM      29.46F
NASHUA         MOCLDY    56  44  64 CALM      29.49F
MANCHESTER     CLOUDY    53  43  68 SW3       29.47F
CONCORD        MOCLDY    50  43  77 S3        29.48F
LACONIA        MOCLDY    52  45  76 W10       29.45F
PLYMOUTH       FAIR      47  47 100 CALM      29.46S FOG
BERLIN         RAIN      47  46  97 S7        29.43F FOG
WHITEFIELD     MOCLDY    48  46  93 VRB3      29.45S
JAFFREY        PTCLDY    50  44  80 S5        29.51F
LEBANON        CLEAR     48  43  82 S9        29.47F
MT WASHINGTON  FOG       32  32 100 W43G49      N/A  VSB 0   WCI  15
$$

VTZ005-007-008-260500-
VERMONT

CITY           SKY/WX    TMP DP  RH WIND       PRES   REMARKS
ST JOHNSBURY     N/A     48  47  96 MISG      29.43F
MONTPELIER     PTCLDY    49  42  77 W6        29.49F
BURLINGTON     MOCLDY    51  46  83 CALM      29.45F
$$

MAZ007-012-024-CTZ003-RIZ002-NYZ038-NYZ072-260500-
SOUTHERN NEW ENGLAND AND NY

CITY           SKY/WX    TMP DP  RH WIND       PRES   REMARKS
BOSTON         CLOUDY    56  46  69 SW10      29.49F
WORCESTER      CLOUDY    53  43  68 W12       29.51F
NANTUCKET      CLOUDY    60  54  80 SW16      29.56F
PROVIDENCE     MOCLDY    58  49  72 SW10      29.52F
HARTFORD       MOCLDY    58  44  60 W10       29.53S
ALBANY         PTCLDY    53  45  74 VRB3      29.53F
NEW YORK CITY  PTCLDY    62  45  53 SW14G21   29.56F
$$

ANZ081-ANZ082-ANZ150-NHZ014-MEZ023>029-260500-
COASTAL MARINE OBSERVATIONS

STATION/POSITION TIME  TEMP    WIND        PRES    WAVE
                       AIR SEA DIR/SP/G            HT/PER
                 (UTC) (F)     (DEG/KT/KT) (MB)    (FT/S)
MOUNT DESERT ROC 0300                       998.5
MATINICUS ROCK   0400          220/ 15/ 16  996.7F
PORTLAND WX BUOY 0350   56 53  220/ 16/ 17  996.5F   2/ 3
WELLS            0300   55 51  280/  5/  8  997.9F
ISLE OF SHOALS   0400   56     210/ 14/ 15  997.1F
JEFFREYS LEDGE   0321      55                N/A     2/ 8
CASHES LEDGE BUO 0350   56 54  230/ 14/ 16  997.5F   2/ 3
$$

.............KEY..............
   WCI - WIND CHILL
   TC  - TEMPERATURE IN CELSIUS
   VSB - VISIBILITY IN MILES
   HX  - HEAT INDEX
   FAIR- INDICATES FEW OR NO CLOUDS BELOW 12,000 FT, WITH NO
         SIGNIFICANT WEATHER AND/OR OBSTRUCTIONS TO VISIBILITY.





USA.gov is the U.S. government's official web portal to all federal, state and local government web resources and services.